Погода в Окхэме

Великобритания     52°40′24″N   0°43′27″E
темп.,
°C
ветер,
м/с
пор.,
м/с
влажн.,
%
обл.,
%
осадки,
мм/ч
давл.,
гПа
погр.,
м
18 января, пн
пн1800:00+2зюз5129344 0.0 1024346
03:00+2зюз5119361 0.0 1022316
06:00+2зюз5119335 0.0 1021335
09:00+2зюз5129267 0.0 1020405
12:00+5зюз6118483 0.0 1019759
15:00+5юз51186100 0.0 1017668
18:00+5ююз51393100 0.0 1014495
21:00+6ююз51396100 1.7 1010543
19 января, вт
вт1900:00+7юз51297100 1.8 1007405
03:00+8юз41098100 2.8 1002417
06:00+10зюз102092100 6.5 10011192
09:00+9зюз9198697 0.8 10001183
12:00+9юз8168598 0.9 10001150
15:00+9юз111988100 0.8 9961068
18:00+10юз101891100 2.0 994988
21:00+10юз81790100 0.7 9911028
20 января, ср
ср2000:00+10юз101788100 0.9 9891056
03:00+10юз101792100 2.4 9881016
06:00+10юз81593100 5.4 987831
09:00+10ююз71593100 3.4 986949
12:00+10ююз111889100 4.4 9841052
15:00+9ю101990100 0.8 9801140
18:00+10ююз112187100 0.9 9771348
21:00+9ююз12228482 0.4 9751363
21 января, чт
чт2100:00+5юз7129289 3.1 973910
03:00+3зюз101782100 1.9 9761384
06:00+3юз8177970 1.9 9791116
09:00+3юз917805 0.0 9791170
12:00+5зюз1017727 0.0 9801500
15:00+5зюз917670 0.0 9811345
18:00+3зюз7138112 0.0 983792
21:00+2зюз6148511 0.0 983594
22 января, пт
пт2200:00+2з715865 0.0 984600
03:00+2з715866 0.0 986635
06:00+1з714843 0.0 988559
09:00+1з713830 0.0 990534
12:00+4з711760 0.0 992951
15:00+4з6107861 0.1 993897
18:00+1з5108878 0.3 995335
21:000зюз37910 0.0 996160